Cape Byron Observation History
Time Wind Speed Temp Pressure Rel. Hum Rain
26/04:30pm NE 16-19 kts 19.6°c 1017.6 hPa 68% 0.0mm
26/04:00pm NE 17-19 kts 19.9°c 1017.4 hPa 65% 0.0mm
26/03:30pm NE 14-17 kts 20.9°c 1017.4 hPa 64% 0.0mm
26/03:00pm NE 12-14 kts 21.7°c 1017.2 hPa 61% 0.0mm
26/02:30pm ENE 11-13 kts 22.8°c 1017.2 hPa 62% 0.0mm
26/02:00pm ENE 11-14 kts 22.6°c 1017.5 hPa 60% 0.0mm
26/01:30pm E 8-11 kts 22.1°c 1017.8 hPa 62% 0.0mm
26/01:00pm E 7-10 kts 21.9°c 1018.1 hPa 57% 0.0mm
26/12:30pm E 7-9 kts 21.7°c 1018.5 hPa 58% 0.0mm
26/12:00pm E 9-11 kts 21.2°c 1018.9 hPa 54% 0.0mm
26/11:30am E 10-11 kts 20.6°c 1019.3 hPa 56% 0.0mm
26/11:00am ESE 9-11 kts 20.0°c 1019.6 hPa 55% 0.0mm
26/10:30am SE 7-10 kts 19.6°c 1020.0 hPa 59% 0.0mm
26/10:00am SSW 5-8 kts 18.4°c 1020.2 hPa 61% 0.0mm
26/09:30am S 6-7 kts 17.6°c 1020.4 hPa 68% 0.0mm
26/09:00am S 5-6 kts 17.3°c 1020.4 hPa 67% 0.0mm
26/08:30am S 6-7 kts 16.5°c 1020.3 hPa 67% 0.0mm
26/08:00am WSW 5-6 kts 16.4°c 1020.0 hPa 63% 0.0mm
26/07:30am SW 6-7 kts 15.8°c 1019.7 hPa 61% 0.0mm
26/07:00am SW 6-8 kts 16.3°c 1019.4 hPa 59% 0.0mm
26/06:30am WSW 9-11 kts 15.4°c 1019.1 hPa 62% 0.0mm
26/06:00am W 10-11 kts 15.0°c 1018.7 hPa 64% 0.0mm
26/05:30am WNW 6-7 kts 15.5°c 1018.2 hPa 60% 0.0mm
26/05:00am WNW 5-6 kts 14.7°c 1018.0 hPa 58% 0.0mm
26/04:30am WNW 6-8 kts 13.9°c 1017.8 hPa 80% 0.0mm
26/04:00am NNW 5-7 kts 15.1°c 1017.3 hPa 78% 0.0mm
26/03:30am NNW 4-6 kts 16.6°c 1017.2 hPa 77% 0.0mm
26/03:00am N 10-15 kts 17.3°c 1017.1 hPa 71% 0.0mm
26/02:30am N 11-18 kts 17.3°c 1017.2 hPa 76% 0.0mm
26/02:00am N 12-18 kts 17.2°c 1017.3 hPa 77% 0.0mm
26/01:30am N 13-18 kts 17.2°c 1017.3 hPa 77% 0.0mm
26/01:00am N 13-21 kts 17.3°c 1017.5 hPa 77% 0.0mm
26/12:30am N 13-18 kts 17.3°c 1017.7 hPa 75% 0.0mm
26/12:00am N 12-18 kts 17.5°c 1017.7 hPa 74% 0.0mm
Time Wind Speed Temp Pressure Rel. Hum Rain
25/11:30pm N 13-18 kts 17.6°c 1017.9 hPa 72% 0.0mm
25/11:00pm N 13-18 kts 17.7°c 1018.0 hPa 69% 0.0mm
25/10:30pm N 12-17 kts 17.7°c 1017.9 hPa 72% 0.0mm
25/10:00pm N 13-18 kts 17.8°c 1018.1 hPa 73% 0.0mm
25/09:30pm N 12-17 kts 17.7°c 1018.0 hPa 78% 0.0mm
25/09:00pm NNW 10-17 kts 17.7°c 1018.2 hPa 81% 0.0mm
25/08:30pm N 11-16 kts 18.0°c 1018.2 hPa 81% 0.0mm
25/08:00pm N 9-14 kts 18.0°c 1018.1 hPa 82% 0.0mm
25/07:30pm N 10-14 kts 18.4°c 1018.1 hPa 82% 0.0mm
25/07:00pm N 12-17 kts 18.5°c 1018.0 hPa 80% 0.0mm
25/06:30pm N 12-17 kts 18.6°c 1017.8 hPa 80% 0.0mm
25/06:00pm N 12-16 kts 18.6°c 1017.6 hPa 79% 0.0mm
25/05:30pm N 12-17 kts 18.9°c 1017.3 hPa 77% 0.0mm
25/05:00pm NNE 12-17 kts 19.3°c 1017.0 hPa 74% 0.0mm
25/04:30pm NNE 13-19 kts 19.6°c 1016.7 hPa 70% 0.0mm
25/04:00pm NNE 13-18 kts 19.9°c 1016.7 hPa 68% 0.0mm
25/03:30pm NNE 13-20 kts 20.1°c 1016.8 hPa 66% 0.0mm
25/03:00pm NNE 15-20 kts 20.3°c 1016.7 hPa 65% 0.0mm
25/02:30pm NNE 14-19 kts 20.5°c 1016.8 hPa 64% 0.0mm
25/02:00pm NNE 13-20 kts 20.5°c 1016.7 hPa 66% 0.0mm
25/01:30pm NNE 11-16 kts 20.7°c 1017.0 hPa 65% 0.0mm
25/01:00pm NNE 12-15 kts 21.2°c 1017.4 hPa 62% 0.0mm
25/12:30pm NNE 11-14 kts 21.1°c 1018.1 hPa 64% 0.0mm
25/12:00pm NNE 8-11 kts 21.5°c 1018.6 hPa 62% 0.0mm
25/11:30am NNE 7-9 kts 21.1°c 1019.0 hPa 54% 0.0mm
25/11:00am N 6-7 kts 20.8°c 1019.6 hPa 59% 0.0mm
25/10:30am N 6-8 kts 19.7°c 1019.9 hPa 61% 0.0mm
25/10:00am N 5-8 kts 19.1°c 1020.1 hPa 62% 0.0mm
25/09:30am NNW 6-10 kts 18.0°c 1020.3 hPa 62% 0.0mm
25/09:00am N 5-7 kts 17.4°c 1020.3 hPa 63% 0.0mm
25/08:30am N 5-7 kts 16.5°c 1020.5 hPa 61% 0.0mm
25/08:00am N 5-7 kts 16.0°c 1020.5 hPa 63% 0.0mm
25/07:30am N 5-7 kts 15.2°c 1020.2 hPa 68% 0.0mm
25/07:00am N 6-8 kts 14.6°c 1019.8 hPa 73% 0.0mm
25/06:30am NNW 5-7 kts 13.9°c 1019.6 hPa 76% 0.0mm
25/06:00am NNW 6-9 kts 13.7°c 1019.4 hPa 76% 0.0mm
25/05:30am NNW 6-8 kts 13.1°c 1019.3 hPa 75% 0.0mm
25/05:00am NW 5-9 kts 13.8°c 1019.3 hPa 79% 0.0mm
25/04:30am NNW 8-13 kts 14.6°c 1019.0 hPa 78% 0.0mm
25/04:00am NNW 5-9 kts 15.2°c 1019.0 hPa 77% 0.0mm
25/03:30am NNW 9-15 kts 15.8°c 1019.0 hPa 74% 0.0mm
25/03:00am N 12-17 kts 15.9°c 1019.0 hPa 72% 0.0mm
25/02:30am NNW 11-16 kts 15.9°c 1019.2 hPa 71% 0.0mm
25/02:00am NNW 11-17 kts 16.2°c 1019.4 hPa 71% 0.0mm
25/01:30am N 12-19 kts 16.6°c 1019.8 hPa 70% 0.0mm
25/01:00am N 11-17 kts 16.5°c 1020.1 hPa 70% 0.0mm
25/12:30am N 13-21 kts 16.7°c 1020.3 hPa 71% 0.0mm
25/12:00am N 12-18 kts 16.5°c 1020.4 hPa 70% 0.0mm
Time Wind Speed Temp Pressure Rel. Hum Rain
24/11:30pm N 13-19 kts 16.6°c 1020.7 hPa 68% 0.0mm
24/11:00pm N 14-21 kts 16.5°c 1020.8 hPa 69% 0.0mm
24/10:30pm N 13-20 kts 16.6°c 1021.0 hPa 71% 0.0mm
24/10:00pm N 13-20 kts 16.5°c 1021.1 hPa 71% 0.0mm
24/09:30pm NNW 12-20 kts 16.6°c 1021.2 hPa 70% 0.0mm
24/09:00pm NNW 10-15 kts 16.8°c 1021.4 hPa 72% 0.0mm
24/08:30pm NNW 10-17 kts 17.1°c 1021.4 hPa 71% 0.0mm
24/08:00pm N 15-21 kts 17.5°c 1021.3 hPa 64% 0.0mm
24/07:30pm N 16-23 kts 17.5°c 1021.2 hPa 64% 0.0mm
24/07:00pm N 17-23 kts 17.5°c 1021.4 hPa 66% 0.0mm
24/06:30pm N 17-23 kts 17.5°c 1021.1 hPa 64% 0.0mm
24/06:00pm N 16-23 kts 17.5°c 1021.1 hPa 64% 0.0mm
24/05:30pm N 15-21 kts 17.6°c 1021.1 hPa 61% 0.0mm
24/05:00pm N 15-21 kts 17.9°c 1021.1 hPa 60% 0.0mm
24/04:30pm NNE 14-20 kts 18.1°c 1020.9 hPa 58% 0.0mm
24/04:00pm NNE 15-20 kts 18.3°c 1020.8 hPa 58% 0.0mm
24/03:30pm NNE 15-21 kts 18.5°c 1020.8 hPa 55% 0.0mm
24/03:00pm NNE 13-18 kts 18.6°c 1020.9 hPa 56% 0.0mm
24/02:30pm NNE 13-19 kts 18.8°c 1021.1 hPa 53% 0.0mm
24/02:00pm NNE 13-21 kts 19.1°c 1021.5 hPa 53% 0.0mm
24/01:30pm NNE 11-15 kts 19.2°c 1022.0 hPa 57% 0.0mm
24/01:00pm NNE 10-15 kts 19.4°c 1022.4 hPa 56% 0.0mm
24/12:30pm NNE 11-16 kts 19.6°c 1022.9 hPa 54% 0.0mm
24/12:00pm NNE 9-13 kts 19.3°c 1023.6 hPa 57% 0.0mm
24/11:30am NNE 7-10 kts 19.7°c 1024.2 hPa 56% 0.0mm
24/11:00am NNE 6-9 kts 19.8°c 1024.5 hPa 59% 0.0mm
24/10:30am NNE 5-7 kts 19.7°c 1024.9 hPa 59% 0.0mm
24/10:00am NNE 5-7 kts 18.9°c 1025.3 hPa 59% 0.0mm
24/09:30am ENE 4-6 kts 18.8°c 1025.6 hPa 59% 0.0mm
24/09:00am NNE 3-5 kts 17.7°c 1025.5 hPa 61% 0.0mm
24/08:30am SSW 3-4 kts 16.0°c 1025.6 hPa 67% 0.0mm
24/08:00am WSW 4-5 kts 14.6°c 1025.6 hPa 68% 0.0mm
24/07:30am WSW 7-9 kts 13.9°c 1025.5 hPa 69% 0.0mm
24/07:00am WSW 9-11 kts 13.5°c 1025.4 hPa 71% 0.0mm
24/06:30am SW 8-9 kts 12.9°c 1025.1 hPa 73% 0.0mm
24/06:00am SW 6-7 kts 13.3°c 1025.0 hPa 73% 0.0mm
24/05:30am SW 9-10 kts 13.4°c 1024.9 hPa 74% 0.0mm
24/05:00am SW 9-11 kts 13.1°c 1024.8 hPa 73% 0.0mm
24/04:30am WSW 10-13 kts 13.2°c 1024.7 hPa 73% 0.0mm
24/04:00am SW 9-11 kts 13.4°c 1024.4 hPa 73% 0.0mm
24/03:30am SW 10-12 kts 13.3°c 1024.4 hPa 74% 0.0mm
24/03:00am SW 9-12 kts 13.6°c 1024.4 hPa 72% 0.0mm
24/02:30am WSW 10-13 kts 13.8°c 1024.5 hPa 72% 0.0mm
24/02:00am SW 10-11 kts 13.7°c 1024.7 hPa 71% 0.0mm
24/01:30am SW 8-10 kts 13.9°c 1024.9 hPa 71% 0.0mm
24/01:00am SW 8-9 kts 14.5°c 1025.1 hPa 69% 0.0mm
24/12:30am SSW 7-9 kts 14.7°c 1025.2 hPa 69% 0.0mm
24/12:00am S 7-9 kts 15.5°c 1025.3 hPa 68% 0.0mm